Back to catalog

STARLINK-30992

AliveCommunicationsVLEO
NORAD 58524·PAYLOAD·🇺🇸 United States

Launched Dec 7, 2023 from Cape Canaveral Space Force Station

Loading…

Next Passes (next 24 hours)

TLE

FreshSource: CelesTrak SupGP

Epoch: Sep 14, 2026, 22:19 UTC

1 58524C 23191S   26257.93034722  .00015096  00000+0  54691-3 0  2577
2 58524  43.0017 114.4994 0001202 284.7585 146.9406 15.27562828    14

Track STARLINK-30992 in real time with AllMySat

Download on the App Store